Hourly Data Report for October 24, 2016

All times are specified in Local Standard Time (LST). Add 1 hour to adjust for Daylight Saving Time where and when it is observed.

QIKIQTARJUAQ A
NUNAVUT

67°32'48.000" N
64°01'54.000" W
5.50 m
2400577
YVM

Download Data

Hourly Data (October 2016)
Hourly Data Report for October 24, 2016
Temp Definition
°C
Dew Point Temp Definition
°C
Rel Hum Definition
%
Wind Dir Definition
10's deg

Wind Spd Definition
km/h
Visibility Definition
km
Stn Press Definition
kPa
Hmdx Definition


Wind Chill Definition


Weather Definition


TIME
00:00 Legend Double Dagger -3.0 -9.6 61 31 26 16.1 102.54   -10 LegendNANA
01:00 Legend Double Dagger -3.2 -9.3 63 31 28 16.1 102.50   -10 LegendNANA
02:00 Legend Double Dagger -3.6 -8.9 67 30 30 16.1 102.42   -11 Snow
03:00 Legend Double Dagger -3.1 -8.4 67 33 32 16.1 102.36   -11 Snow
04:00 Legend Double Dagger -3.8 -7.7 74 31 18 16.1 102.33   -10 Snow
05:00 Legend Double Dagger -4.1 -6.7 82 32 32 12.9 102.26   -12 Snow
06:00 Legend Double Dagger -3.8 -7.1 78 32 32 16.1 102.19   -12 Snow
07:00 Legend Double Dagger -3.7 -7.3 76 32 28 16.1 102.17   -11 LegendNANA
08:00 Legend Double Dagger -4.0 -6.6 82 32 32 16.1 102.13   -12 LegendNANA
09:00 Legend Double Dagger -3.7 -7.0 78 32 34 16.1 102.07   -12 Snow
10:00 Legend Double Dagger -3.6 -7.0 77 31 34 16.1 101.95   -12 LegendNANA
11:00 Legend Double Dagger -3.5 -7.3 75 30 35 16.1 101.90   -12 LegendNANA
12:00 Legend Double Dagger -3.7 -6.5 81 31 30 11.3 101.85   -11 Snow
13:00 Legend Double Dagger -3.8 -5.8 86 33 28 9.7 101.82   -11 Snow
14:00 Legend Double Dagger -3.4 -6.7 78 32 34 16.1 101.77   -11 Snow
15:00 Legend Double Dagger -3.9 -5.7 87 32 34 6.4 101.77   -12 Snow
16:00 Legend Double Dagger -4.4 -6.9 83 32 37 6.4 101.70   -13 Snow
17:00 Legend Double Dagger -3.9 -7.6 76 31 32 16.1 101.66   -12 LegendNANA
18:00 Legend Double Dagger -3.7 -7.4 76 31 32 16.1 101.60   -12 LegendNANA
19:00 Legend Double Dagger -3.6 -7.5 75 32 26 16.1 101.58   -11 LegendNANA
20:00 Legend Double Dagger -3.6 -7.0 77 32 34 16.1 101.51   -12 LegendNANA
21:00 Legend Double Dagger -3.7 -5.8 85 32 32 16.1 101.50   -12 Snow
22:00 Legend Double Dagger -3.9 -5.5 89 32 32 4.8 101.46   -12 Snow
23:00 Legend Double Dagger -3.8 -6.0 85 33 37 6.4 101.45   -12 Snow

Notes on Data Quality.

Legend

  • E = Estimated
  • M = Missing
  • NA = Not Available
  • ‡ = Partner data that is not subject to review by the National Climate Archives
Date modified: